Regional Weather Roundup
Issued by NWS

Home | Current Version | Previous Version | Text Only | Print | Product List | Glossary Off
Versions: 1 2 3 4 5 6 7 8 9 10 11 12 13 14 15 16 17 18 19 20 21 22 23 24 25 26 27 28 29 30 31 32 33 34 35 36 37 38 39 40 41 42 43 44 45 46 47 48 49 50

000
ASUS43 KIND 061959
RWRIN

WEATHER ROUNDUP FOR INDIANA
NATIONAL WEATHER SERVICE INDIANAPOLIS IN
400 PM EDT MON JUL 06 2015

NOTE: "FAIR" INDICATES FEW OR NO CLOUDS BELOW 12,000 FEET WITH NO
SIGNIFICANT WEATHER AND/OR OBSTRUCTIONS TO VISIBILITY.

* - STATION DOES NOT REPORT WEATHER SUCH AS PRECIPITATION OR FOG.

+ - STATION NOT QUALITY CONTROLLED BY THE NATIONAL WEATHER SERVICE.
    USE DATA WITH CAUTION...ESPECIALLY DEWPOINT AND RELATIVE
    HUMIDITY OBSERVATIONS.

INZ001>003-010>013-019-020-062100-
NORTHWEST INDIANA

CITY           SKY/WX    TMP DP  RH WIND       PRES   REMARKS
GARY /AIRPORT/ PTSUNNY  N/A N/A N/A S14       29.93S
RENSSELAER +   PTSUNNY   84  72  65 S12G20    29.96S

$$

LMZ046-743>745-062100-
SOUTHERN LAKE MICHIGAN

STATION/POSITION TIME  TEMP    WIND        PRES    WAVE
                       AIR SEA DIR/SP/G            HT
                 (UTC) (F)     (DEG/KT/KT) (MB)    (FT)
BURNS HARBOR     1900   84     190/ 13/ 20 1013.9S
MICHIGAN CITY    1900   81     150/ 12/ 16   N/A
5NW MICH CITY    1900   77 67  190/ 10/ 12   N/A     1

$$

INZ004-005-014>016-021>024-062100-
NORTH CENTRAL INDIANA

CITY           SKY/WX    TMP DP  RH WIND       PRES   REMARKS
ELKHART        MOSUNNY   84  64  51 SW8G17    29.98S
GOSHEN         PTSUNNY   83  67  58 SW15      29.98S
SOUTH BEND     PTSUNNY   85  66  53 S16G30    29.97S

$$

INZ006>009-017-018-025>027-062100-
NORTHEAST INDIANA

CITY           SKY/WX    TMP DP  RH WIND       PRES   REMARKS
ANGOLA *+        N/A     84  66  54 SW8       29.99F
FORT WAYNE     MOSUNNY   83  66  56 S13       30.00F

$$

INZ028-029-035-036-043>045-051>053-062100-
WEST CENTRAL INDIANA

CITY           SKY/WX    TMP DP  RH WIND       PRES   REMARKS
CRAWFORDSVL +  PTSUNNY   82  64  56 S9        29.99F
GREENCASTLE +  MOSUNNY   82  64  54 S6        30.01F
LAFAYETTE      MOSUNNY   84  69  60 S8        29.97F
TERRE HAUTE    MOSUNNY   86  71  60 S12       29.99F

$$

INZ030>032-037>040-046>048-054>057-064-065-062100-
CENTRAL INDIANA

CITY           SKY/WX    TMP DP  RH WIND       PRES   REMARKS
COLUMBUS       MOSUNNY   86  59  39 SW9       30.02
GREENWOOD *+   MOSUNNY   82  64  54 S8        30.02F
INDIANAPOLIS   MOSUNNY   83  65  54 S12       30.00F
-EAGLE CREEK   MOSUNNY   84  67  56 S8        30.00F
KOKOMO *+      MOSUNNY   84  66  54 S13       29.99F
MT COMFORT *+  SUNNY     84  55  37 S12       30.02F
SHELBYVILLE    SUNNY     86  67  52 SW10      30.02F

$$

INZ033-034-041-042-049-050-058-059-062100-
EAST CENTRAL INDIANA

CITY           SKY/WX    TMP DP  RH WIND       PRES   REMARKS
MUNCIE         MOSUNNY   85  65  51 S10       30.02F

$$

INZ060-061-067>069-081>083-085>088-062100-
SOUTHWEST INDIANA

CITY           SKY/WX    TMP DP  RH WIND       PRES   REMARKS
EVANSVILLE     PTSUNNY   87  73  62 SW15      30.02F
HUNTINGBURG *+ MOSUNNY   84  72  65 S8        30.03F

$$

INZ062-063-066-070>080-084-089>092-062100-
SOUTH CENTRAL AND SOUTHEAST INDIANA

CITY           SKY/WX    TMP DP  RH WIND       PRES   REMARKS
BLOOMINGTON    PTSUNNY   83  70  64 SW7       30.02F
MADISON *+     SUNNY     86  63  45 S6        30.07F
SEYMOUR +      MOSUNNY   86  70  58 S7        30.03F

$$



USA.gov is the U.S. government's official web portal to all federal, state and local government web resources and services.